• In Deutschland
  • Länderverzeichnis
  • Für 7 Tage
  • Wassertemperatur
  • Satellitenkarten
  • Wetterkarte
  • Widgets
  • user-avatar
    Anmelden

    Stündliche Wetter Kozki

    Heute, 18 August, Samstag

    Zeit Temperatur Niederschläge Wind Luftdruck Luftfeuchtigkeit
    00:00 +19°C° 0 mm 1 m/S 748 mmHg 81%
    01:00 +18°C° 0 mm 1 m/S 748 mmHg 80%
    02:00 +18°C° 0 mm 1 m/S 748 mmHg 81%
    03:00 +18°C° 0 mm 1 m/S 748 mmHg 82%
    04:00 +18°C° 0 mm 1 m/S 748 mmHg 83%
    05:00 +19°C° 0 mm 1 m/S 748 mmHg 78%
    06:00 +21°C° 0 mm 1 m/S 749 mmHg 74%
    07:00 +23°C° 0 mm 1 m/S 749 mmHg 66%
    08:00 +24°C° 0,1 mm 1 m/S 749 mmHg 62%
    09:00 +26°C° 0,1 mm 1 m/S 749 mmHg 58%
    10:00 +27°C° 0,1 mm 1 m/S 749 mmHg 54%
    11:00 +28°C° 0,1 mm 1 m/S 749 mmHg 52%
    12:00 +28°C° 0,1 mm 2 m/S 749 mmHg 50%
    13:00 +29°C° 0,1 mm 2 m/S 749 mmHg 48%
    14:00 +28°C° 0,1 mm 2 m/S 749 mmHg 52%
    15:00 +28°C° 0,1 mm 2 m/S 749 mmHg 55%
    16:00 +27°C° 0,1 mm 2 m/S 748 mmHg 58%
    17:00 +26°C° 0,1 mm 2 m/S 749 mmHg 65%
    18:00 +24°C° 0,1 mm 2 m/S 749 mmHg 72%
    19:00 +21°C° 0,1 mm 2 m/S 749 mmHg 80%
    20:00 +20°C° 0,4 mm 2 m/S 749 mmHg 84%
    21:00 +19°C° 0,4 mm 2 m/S 749 mmHg 89%
    22:00 +18°C° 0,4 mm 3 m/S 750 mmHg 93%
    23:00 +17°C° 0,2 mm 2 m/S 750 mmHg 93%

    Morgen, 19 August, Sonntag

    Zeit Temperatur Niederschläge Wind Luftdruck Luftfeuchtigkeit
    00:00 +16°C° 0,2 mm 2 m/S 750 mmHg 93%
    01:00 +16°C° 0,2 mm 2 m/S 750 mmHg 93%
    02:00 +15°C° 0 mm 1 m/S 750 mmHg 91%
    03:00 +15°C° 0 mm 1 m/S 750 mmHg 90%
    04:00 +15°C° 0 mm 1 m/S 750 mmHg 88%
    05:00 +16°C° 0 mm 1 m/S 750 mmHg 83%
    06:00 +18°C° 0 mm 1 m/S 750 mmHg 79%
    07:00 +19°C° 0 mm 1 m/S 750 mmHg 74%
    08:00 +20°C° 0 mm 2 m/S 751 mmHg 66%
    09:00 +23°C° 0 mm 2 m/S 751 mmHg 59%
    10:00 +24°C° 0 mm 2 m/S 751 mmHg 51%
    11:00 +25°C° 0 mm 2 m/S 751 mmHg 49%
    12:00 +26°C° 0 mm 2 m/S 750 mmHg 47%
    13:00 +27°C° 0 mm 3 m/S 750 mmHg 45%
    14:00 +27°C° 0 mm 2 m/S 750 mmHg 46%
    15:00 +26°C° 0 mm 2 m/S 750 mmHg 47%
    16:00 +26°C° 0 mm 2 m/S 750 mmHg 48%
    17:00 +25°C° 0 mm 1 m/S 750 mmHg 54%
    18:00 +23°C° 0 mm 1 m/S 749 mmHg 60%
    19:00 +19°C° 0 mm 0 m/S 749 mmHg 66%
    20:00 +21°C° 0 mm 1 m/S 749 mmHg 68%
    21:00 +20°C° 0 mm 1 m/S 749 mmHg 70%
    22:00 +19°C° 0 mm 1 m/S 749 mmHg 71%
    23:00 +19°C° 0 mm 1 m/S 749 mmHg 72%

    übermorgen, 20 August, Montag

    Zeit Temperatur Niederschläge Wind Luftdruck Luftfeuchtigkeit
    00:00 +19°C° 0 mm 1 m/S 749 mmHg 72%
    01:00 +17°C° 0 mm 2 m/S 749 mmHg 73%
    02:00 +17°C° 0 mm 2 m/S 749 mmHg 73%
    03:00 +17°C° 0 mm 2 m/S 748 mmHg 74%
    04:00 +17°C° 0 mm 2 m/S 748 mmHg 74%
    05:00 +18°C° 0 mm 2 m/S 748 mmHg 71%
    06:00 +19°C° 0 mm 3 m/S 748 mmHg 69%
    07:00 +21°C° 0 mm 3 m/S 748 mmHg 66%
    08:00 +22°C° 0 mm 3 m/S 748 mmHg 61%
    09:00 +25°C° 0 mm 4 m/S 747 mmHg 56%
    10:00 +27°C° 0 mm 4 m/S 747 mmHg 51%
    11:00 +28°C° 0 mm 4 m/S 747 mmHg 49%
    12:00 +29°C° 0 mm 4 m/S 746 mmHg 47%
    13:00 +29°C° 0 mm 4 m/S 746 mmHg 45%
    14:00 +29°C° 0 mm 4 m/S 746 mmHg 49%
    15:00 +28°C° 0 mm 3 m/S 745 mmHg 52%
    16:00 +28°C° 0 mm 3 m/S 745 mmHg 55%
    17:00 +26°C° 0,1 mm 3 m/S 745 mmHg 60%
    18:00 +25°C° 0,1 mm 3 m/S 744 mmHg 65%
    19:00 +24°C° 0,1 mm 3 m/S 744 mmHg 69%
    20:00 +22°C° 0,1 mm 3 m/S 744 mmHg 73%
    21:00 +21°C° 0,1 mm 3 m/S 744 mmHg 77%
    22:00 +20°C° 0,1 mm 2 m/S 744 mmHg 81%
    23:00 +20°C° 0 mm 3 m/S 744 mmHg 82%

    21 August, Dienstag

    Zeit Temperatur Niederschläge Wind Luftdruck Luftfeuchtigkeit
    00:00 +19°C° 0 mm 3 m/S 744 mmHg 83%
    01:00 +19°C° 0 mm 3 m/S 744 mmHg 84%
    02:00 +18°C° 0 mm 3 m/S 744 mmHg 87%
    03:00 +18°C° 0 mm 3 m/S 744 mmHg 90%
    04:00 +17°C° 0 mm 4 m/S 745 mmHg 93%
    05:00 +18°C° 0 mm 4 m/S 745 mmHg 89%
    06:00 +17°C° 0 mm 5 m/S 746 mmHg 85%
    07:00 +17°C° 0 mm 5 m/S 746 mmHg 81%
    08:00 +19°C° 0,1 mm 5 m/S 746 mmHg 75%
    09:00 +20°C° 0,1 mm 5 m/S 747 mmHg 69%
    10:00 +21°C° 0,1 mm 5 m/S 747 mmHg 63%
    11:00 +21°C° 0,1 mm 5 m/S 748 mmHg 60%
    12:00 +22°C° 0,1 mm 5 m/S 748 mmHg 57%
    13:00 +23°C° 0,1 mm 5 m/S 748 mmHg 55%
    14:00 +22°C° 0,1 mm 4 m/S 748 mmHg 56%
    15:00 +22°C° 0,1 mm 4 m/S 748 mmHg 58%
    16:00 +21°C° 0,1 mm 4 m/S 748 mmHg 60%
    17:00 +20°C° 0 mm 3 m/S 749 mmHg 65%
    18:00 +18°C° 0 mm 3 m/S 749 mmHg 70%
    19:00 +17°C° 0 mm 2 m/S 750 mmHg 75%
    20:00 +16°C° 0 mm 2 m/S 750 mmHg 78%
    21:00 +15°C° 0 mm 2 m/S 750 mmHg 81%
    22:00 +14°C° 0 mm 2 m/S 751 mmHg 83%
    23:00 +13°C° 0 mm 2 m/S 751 mmHg 85%

    22 August, Mittwoch

    Zeit Temperatur Niederschläge Wind Luftdruck Luftfeuchtigkeit
    00:00 +13°C° 0 mm 2 m/S 751 mmHg 87%
    01:00 +12°C° 0 mm 1 m/S 752 mmHg 89%
    02:00 +12°C° 0 mm 1 m/S 752 mmHg 89%
    03:00 +12°C° 0 mm 1 m/S 752 mmHg 90%
    04:00 +11°C° 0 mm 1 m/S 752 mmHg 91%
    05:00 +13°C° 0 mm 1 m/S 753 mmHg 85%
    06:00 +14°C° 0 mm 1 m/S 753 mmHg 79%
    07:00 +16°C° 0 mm 1 m/S 753 mmHg 72%
    08:00 +18°C° 0 mm 1 m/S 753 mmHg 66%
    09:00 +20°C° 0 mm 1 m/S 753 mmHg 59%
    10:00 +21°C° 0 mm 1 m/S 753 mmHg 53%
    11:00 +22°C° 0 mm 1 m/S 753 mmHg 49%
    12:00 +23°C° 0 mm 1 m/S 753 mmHg 46%
    13:00 +24°C° 0 mm 1 m/S 753 mmHg 42%
    14:00 +24°C° 0 mm 1 m/S 752 mmHg 42%
    15:00 +24°C° 0 mm 1 m/S 752 mmHg 42%
    16:00 +24°C° 0 mm 1 m/S 752 mmHg 42%
    17:00 +22°C° 0 mm 1 m/S 752 mmHg 47%
    18:00 +20°C° 0 mm 2 m/S 752 mmHg 53%
    19:00 +18°C° 0 mm 2 m/S 752 mmHg 58%
    20:00 +17°C° 0 mm 2 m/S 752 mmHg 60%
    21:00 +16°C° 0 mm 2 m/S 752 mmHg 63%
    22:00 +14°C° 0 mm 3 m/S 752 mmHg 65%
    23:00 +14°C° 0 mm 3 m/S 752 mmHg 68%

    23 August, Donnerstag

    Zeit Temperatur Niederschläge Wind Luftdruck Luftfeuchtigkeit
    00:00 +14°C° 0 mm 3 m/S 752 mmHg 71%
    01:00 +13°C° 0 mm 3 m/S 752 mmHg 74%
    02:00 +13°C° 0 mm 3 m/S 751 mmHg 76%
    03:00 +13°C° 0 mm 3 m/S 751 mmHg 79%
    04:00 +12°C° 0 mm 3 m/S 751 mmHg 81%
    05:00 +14°C° 0 mm 3 m/S 751 mmHg 77%
    06:00 +16°C° 0 mm 3 m/S 751 mmHg 73%
    07:00 +18°C° 0 mm 3 m/S 751 mmHg 68%
    08:00 +20°C° 0 mm 4 m/S 751 mmHg 62%
    09:00 +22°C° 0 mm 4 m/S 750 mmHg 57%
    10:00 +23°C° 0 mm 4 m/S 750 mmHg 51%
    11:00 +25°C° 0 mm 4 m/S 750 mmHg 49%
    12:00 +26°C° 0 mm 4 m/S 749 mmHg 47%
    13:00 +27°C° 0 mm 4 m/S 749 mmHg 45%
    14:00 +27°C° 0 mm 4 m/S 748 mmHg 46%
    15:00 +27°C° 0 mm 4 m/S 748 mmHg 47%
    16:00 +26°C° 0 mm 4 m/S 747 mmHg 48%
    17:00 +25°C° 0 mm 4 m/S 747 mmHg 53%
    18:00 +22°C° 0 mm 4 m/S 747 mmHg 58%
    19:00 +20°C° 0 mm 4 m/S 747 mmHg 64%
    20:00 +19°C° 0 mm 4 m/S 746 mmHg 65%
    21:00 +19°C° 0 mm 4 m/S 746 mmHg 66%
    22:00 +18°C° 0 mm 4 m/S 746 mmHg 67%
    23:00 +17°C° 0 mm 4 m/S 746 mmHg 69%
    Mehr zeigen